Temp
20 18 16 16 16 16 16 17 16 16 15 15 15 15 15 15 15 15 15 14 15 15 15 14 14 13 14 14 14 15 15 15 15 15 16 16 16 16 16 15 15 15 14
21 18 16 16 16 16 16 16 16 16 15 15 15 15 15 15 15 15 15 15 15 15 14 14 14 13 14 14 14 14 15 15 15 15 15 15 15 15 15 15 14 14 14
19 18 16 16 17 16 16 16 16 15 15 15 14 15 15 15 15 15 15 15 15 15 14 14 13 14 14 14 14 14 14 14 14 14 15 15 15 14 14 14 14 13 13
20 20 18 17 16 16 15 15 16 16 15 14 13 14 15 15 15 14 14 14 14 14 14 14 14 14 14 14 14 14 14 14 14 14 14 14 14 14 14 14 13 13 13
20 21 19 17 16 16 15 15 15 15 15 14 13 15 15 16 15 14 13 13 13 13 13 14 14 14 14 14 14 14 14 13 13 13 13 13 13 13 13 13 13 13 13
20 20 19 17 15 15 15 14 15 15 15 14 14 15 15 16 15 14 14 13 13 14 14 14 14 14 14 14 14 13 13 13 13 13 12 12 13 12 13 13 13 13 13
19 19 18 18 17 17 17 15 16 15 15 14 14 15 15 16 16 15 15 15 14 14 14 14 14 14 14 13 13 13 13 13 12 12 12 12 13 13 13 12 12 12 12
18 18 18 17 17 19 17 17 17 17 17 15 15 15 16 16 16 15 15 14 14 14 14 14 14 14 14 13 13 13 13 12 12 12 12 12 12 12 12 12 12 12 13
18 18 18 18 18 17 18 18 17 17 15 15 15 16 16 16 15 15 15 15 15 15 14 14 14 13 13 13 13 13 13 12 12 12 12 12 12 12 11 12 12 12 13
18 18 18 18 18 18 18 19 18 17 15 16 15 16 16 15 15 15 15 14 14 14 14 14 13 13 13 13 13 13 13 12 12 12 12 12 12 11 11 11 11 12 12
18 18 17 18 18 18 18 18 18 18 17 15 16 15 15 15 15 14 14 14 14 14 13 13 13 13 13 13 13 13 12 12 12 12 12 12 11 11 11 11 11 11 11
18 17 17 17 18 18 18 18 17 18 18 16 16 15 15 14 15 14 14 14 14 13 13 13 13 13 13 13 12 12 12 12 12 12 12 11 11 10 11 11 10 10 11
18 18 17 17 17 17 17 17 17 17 18 17 16 15 15 14 14 14 14 14 14 14 13 13 13 13 13 12 12 12 12 13 12 12 11 11 10 9 11 11 11 11 10
17 18 17 17 17 17 17 17 16 17 17 17 17 16 16 15 14 14 14 14 14 14 13 13 13 13 13 12 12 12 12 12 12 12 11 11 10 10 11 11 10 10 10
17 18 18 18 18 17 17 17 16 16 16 16 16 16 15 15 15 14 14 14 14 13 13 13 13 13 12 12 12 12 12 12 12 12 11 11 10 10 10 10 10 10 10
17 17 18 18 18 17 18 17 16 16 16 16 16 16 16 15 15 14 14 14 13 13 13 13 12 12 12 12 12 12 12 12 12 12 11 11 10 10 9 9 9 9 9
17 17 17 17 17 17 17 17 17 16 16 16 16 16 16 15 15 15 14 14 13 13 13 13 12 12 12 12 12 11 12 12 12 11 11 10 10 10 9 9 9 9 9
18 18 18 17 17 17 17 17 17 17 17 16 16 16 15 15 15 15 15 14 13 13 13 12 12 12 12 12 11 11 11 12 11 11 11 10 10 9 9 9 9 9 9
18 18 18 18 17 17 17 17 17 17 17 17 16 16 16 15 15 14 14 14 13 13 12 12 12 12 12 11 11 11 11 11 11 11 10 10 10 9 9 9 9 9 9
17 17 17 17 17 17 17 17 16 16 17 16 17 16 16 16 15 14 14 14 13 13 12 12 12 11 12 11 11 11 11 11 11 11 10 10 10 9 9 9 8 8 8
16 16 16 16 17 17 17 17 17 17 18 17 17 17 17 16 16 15 15 14 13 13 13 12 12 11 11 11 11 10 10 11 11 11 10 10 10 9 9 9 9 9 8
16 16 16 16 16 16 16 17 17 17 18 18 18 17 17 17 16 16 15 15 14 13 13 12 12 12 11 11 10 10 10 10 11 11 10 10 10 9 9 9 9 8 8
15 15 15 16 16 16 16 16 16 16 16 16 17 18 17 17 17 16 16 16 15 14 13 13 13 12 12 11 11 11 10 11 11 11 10 10 9 9 9 9 9 8 7
14 14 15 15 16 16 16 15 15 16 16 17 17 17 18 17 17 17 16 16 16 15 13 13 13 12 12 11 11 11 11 12 12 11 11 10 9 9 9 8 8 8 7
12 13 14 15 15 15 15 14 14 16 16 16 16 16 16 17 17 16 16 16 16 15 15 14 13 12 12 11 11 11 11 10 10 11 11 11 10 9 8 8 8 7 7
13 13 13 13 13 14 14 14 13 14 15 15 15 16 16 16 16 16 16 15 15 15 15 15 14 12 12 11 10 10 10 10 11 10 9 10 10 9 8 7 7 6 6
Height
1529 1533 1536 1538 1540 1542 1545 1547 1549 1551 1553 1553 1554 1555 1556 1557 1558 1558 1558 1559 1560 1561 1562 1563 1563 1564 1564 1565 1566 1567 1567 1568 1569 1569 1569 1569 1568 1568 1567 1567 1566 1566 1566
1529 1532 1536 1538 1540 1542 1545 1547 1549 1551 1553 1553 1554 1555 1556 1557 1557 1557 1558 1559 1560 1561 1562 1564 1565 1565 1565 1566 1567 1568 1568 1568 1568 1569 1569 1569 1568 1568 1568 1567 1567 1567 1567
1529 1531 1535 1538 1541 1543 1546 1547 1549 1550 1552 1553 1553 1554 1555 1556 1557 1557 1559 1560 1561 1562 1564 1565 1566 1566 1566 1567 1567 1567 1568 1568 1569 1569 1569 1569 1569 1569 1569 1568 1568 1568 1568
1530 1532 1535 1538 1541 1543 1546 1548 1549 1551 1552 1553 1554 1554 1555 1556 1557 1558 1559 1561 1562 1563 1564 1566 1566 1566 1567 1567 1567 1568 1568 1569 1570 1570 1570 1570 1570 1571 1571 1570 1569 1569 1569
1530 1534 1536 1538 1540 1543 1545 1547 1549 1551 1552 1554 1554 1553 1555 1556 1557 1559 1560 1562 1563 1564 1566 1567 1567 1567 1567 1567 1568 1569 1570 1570 1570 1571 1571 1571 1571 1571 1572 1571 1571 1571 1570
1530 1533 1536 1538 1540 1542 1545 1547 1549 1551 1552 1553 1553 1554 1555 1556 1557 1559 1560 1561 1564 1566 1567 1567 1567 1567 1568 1569 1569 1570 1570 1571 1571 1572 1572 1572 1572 1572 1573 1572 1572 1571 1571
1532 1534 1536 1537 1540 1542 1545 1546 1549 1551 1552 1553 1553 1554 1556 1557 1558 1559 1560 1562 1564 1566 1566 1567 1567 1568 1569 1570 1571 1571 1571 1571 1572 1573 1573 1573 1573 1573 1573 1572 1571 1571 1571
1532 1535 1537 1538 1541 1542 1544 1547 1548 1550 1551 1553 1554 1555 1556 1557 1558 1560 1561 1563 1564 1566 1566 1567 1568 1568 1569 1571 1571 1571 1572 1572 1573 1573 1574 1574 1575 1574 1573 1572 1572 1571 1571
1533 1535 1537 1539 1541 1543 1545 1547 1548 1550 1551 1552 1554 1556 1557 1558 1559 1560 1561 1563 1564 1565 1566 1567 1568 1569 1570 1571 1571 1572 1572 1572 1573 1573 1573 1574 1574 1574 1573 1571 1571 1571 1570
1533 1535 1537 1539 1541 1543 1545 1547 1548 1549 1551 1553 1554 1556 1557 1559 1560 1561 1562 1563 1564 1566 1566 1568 1568 1569 1569 1570 1571 1571 1572 1572 1572 1573 1573 1573 1573 1573 1573 1571 1570 1570 1569
1532 1533 1536 1538 1541 1543 1545 1546 1547 1548 1550 1552 1554 1556 1557 1559 1560 1561 1562 1563 1564 1566 1567 1568 1568 1569 1569 1570 1571 1571 1571 1572 1572 1572 1572 1572 1572 1572 1571 1570 1569 1568 1568
1530 1532 1535 1537 1539 1541 1543 1545 1547 1548 1550 1551 1553 1554 1556 1558 1559 1561 1562 1563 1564 1565 1567 1567 1568 1569 1569 1569 1570 1570 1570 1571 1571 1572 1571 1571 1572 1570 1569 1568 1568 1567 1567
1531 1532 1534 1536 1538 1539 1542 1544 1545 1546 1548 1550 1551 1553 1555 1556 1557 1559 1560 1562 1563 1564 1565 1566 1568 1568 1569 1569 1569 1570 1569 1569 1569 1569 1570 1569 1569 1569 1568 1566 1567 1566 1566
1529 1531 1533 1535 1537 1538 1540 1541 1543 1545 1546 1547 1550 1551 1552 1554 1555 1557 1558 1560 1561 1562 1564 1565 1566 1567 1568 1568 1568 1569 1568 1568 1568 1567 1567 1568 1567 1567 1567 1566 1566 1566 1566
1526 1528 1530 1532 1533 1535 1537 1539 1540 1541 1543 1545 1547 1549 1550 1551 1552 1555 1556 1558 1559 1561 1562 1563 1564 1565 1566 1567 1567 1567 1567 1566 1566 1566 1566 1566 1565 1566 1566 1565 1565 1565 1565
1524 1525 1527 1528 1530 1532 1533 1533 1536 1538 1540 1542 1543 1545 1547 1549 1550 1551 1553 1555 1557 1559 1561 1561 1562 1562 1563 1564 1564 1565 1565 1564 1564 1564 1564 1564 1564 1564 1564 1564 1564 1564 1564
1521 1522 1522 1524 1526 1527 1528 1531 1532 1533 1536 1537 1539 1541 1542 1545 1547 1548 1550 1552 1554 1556 1557 1558 1559 1560 1560 1561 1562 1562 1562 1562 1562 1562 1562 1562 1562 1562 1562 1562 1562 1562 1561
1516 1516 1518 1519 1520 1522 1523 1526 1528 1529 1532 1531 1534 1536 1538 1540 1542 1544 1546 1547 1550 1551 1553 1555 1556 1557 1558 1559 1559 1559 1559 1559 1560 1559 1560 1560 1559 1559 1560 1560 1560 1559 1559
1509 1510 1511 1513 1515 1516 1518 1520 1523 1526 1528 1528 1529 1530 1533 1534 1537 1539 1540 1543 1545 1546 1548 1550 1552 1554 1554 1555 1557 1557 1556 1556 1556 1557 1557 1557 1557 1557 1557 1558 1559 1558 1558
1502 1504 1505 1506 1508 1511 1512 1513 1516 1518 1521 1522 1523 1524 1526 1529 1531 1532 1534 1537 1539 1540 1541 1544 1547 1549 1550 1551 1552 1554 1554 1552 1553 1553 1553 1553 1553 1554 1554 1554 1556 1556 1556
1494 1496 1497 1499 1501 1503 1504 1505 1507 1508 1511 1513 1516 1517 1520 1522 1524 1526 1527 1530 1533 1534 1535 1538 1541 1543 1545 1546 1548 1549 1550 1549 1549 1549 1548 1549 1549 1550 1551 1551 1551 1552 1552
1484 1487 1490 1491 1494 1495 1496 1498 1499 1501 1502 1505 1507 1510 1513 1515 1516 1518 1521 1523 1525 1528 1530 1532 1533 1536 1539 1541 1543 1545 1546 1546 1544 1544 1544 1545 1545 1545 1546 1547 1547 1548 1548
1477 1478 1480 1482 1485 1487 1489 1490 1491 1492 1494 1496 1498 1501 1503 1506 1508 1510 1513 1515 1517 1520 1523 1525 1527 1529 1531 1535 1537 1539 1539 1539 1538 1538 1539 1540 1540 1541 1541 1542 1542 1543 1544
1475 1475 1475 1475 1476 1478 1481 1481 1482 1482 1482 1485 1489 1493 1495 1497 1499 1502 1505 1507 1509 1511 1514 1517 1520 1522 1525 1527 1530 1529 1532 1533 1533 1534 1533 1534 1535 1536 1537 1537 1537 1537 1538
1476 1473 1472 1471 1471 1471 1471 1472 1475 1476 1477 1479 1481 1484 1486 1487 1490 1492 1496 1499 1501 1503 1506 1508 1511 1514 1516 1519 1520 1522 1523 1524 1524 1528 1527 1528 1530 1531 1532 1533 1533 1532 1532
1475 1473 1470 1468 1467 1466 1465 1466 1468 1470 1473 1472 1473 1475 1477 1479 1480 1481 1486 1489 1492 1494 1497 1499 1501 1505 1508 1510 1514 1515 1517 1518 1519 1520 1522 1522 1523 1524 1526 1527 1528 1528 1526
Wind_Speed
19 20 20 18 17 18 15 14 11 10 10 11 9 9 8 7 7 7 4 3 2 3 6 10 11 11 7 7 6 5 3 2 2 1 3 5 6 6 4 3 4 5 7
20 20 20 18 16 17 15 13 12 11 10 8 9 9 8 7 5 5 2 4 7 6 12 14 12 9 5 3 4 4 5 3 1 1 2 3 4 3 5 6 7 7 7
22 22 21 18 16 17 17 16 13 11 9 6 4 7 7 4 3 2 15 15 12 11 10 15 9 7 5 3 4 5 5 4 3 2 3 5 7 8 8 8 10 10 9
20 18 19 19 17 17 18 15 13 10 7 7 6 5 6 4 5 12 17 13 12 14 19 12 5 3 3 3 6 8 8 7 7 7 7 8 10 11 10 10 10 9 9
18 15 17 20 19 18 16 15 13 10 8 7 7 3 5 5 8 13 17 15 14 15 14 7 3 1 2 8 9 10 9 8 8 7 6 8 10 10 8 7 6 6 7
18 16 17 19 17 17 16 15 13 10 8 7 5 5 5 7 8 11 18 16 16 13 9 5 2 2 7 8 8 8 8 8 8 7 7 7 9 8 4 4 6 9 7
17 17 18 17 17 17 14 13 13 11 9 8 7 4 7 7 8 9 10 15 15 11 8 5 5 7 8 7 6 6 6 7 6 6 7 9 8 6 5 4 6 6 3
16 17 17 17 17 13 13 13 12 11 10 11 7 7 9 9 9 10 11 13 12 10 8 9 9 8 7 5 4 3 4 4 4 4 4 7 4 2 2 1 1 0 1
14 17 16 14 14 14 14 12 12 12 12 11 8 10 10 9 9 11 11 12 12 12 11 10 8 6 5 3 3 4 4 4 3 2 2 3 1 4 1 3 3 4 5
12 14 14 13 15 14 12 11 12 14 15 11 11 12 11 10 10 9 10 11 12 11 11 10 7 5 4 3 4 4 3 3 1 1 1 1 3 2 2 3 4 5 6
14 15 16 14 14 14 13 12 13 14 14 13 13 13 12 11 10 10 9 9 11 11 10 8 6 4 4 3 3 3 2 1 1 2 3 3 4 2 5 5 6 7 6
17 17 17 16 16 16 15 14 13 15 13 15 15 15 14 12 11 10 10 10 11 11 10 8 7 5 4 3 2 1 2 2 3 4 5 5 5 4 6 5 5 5 4
14 16 17 17 19 18 17 15 15 17 15 15 16 16 15 14 14 14 13 13 13 13 13 10 8 6 4 4 3 3 3 3 4 5 6 6 4 5 4 3 3 2 2
15 16 16 17 18 19 18 17 17 18 18 17 17 18 18 17 16 16 15 14 14 13 12 11 9 7 6 5 5 5 5 5 6 6 7 7 6 8 6 3 2 2 2
17 17 17 16 19 20 20 19 19 20 20 18 19 21 21 20 18 17 17 17 16 15 14 12 11 10 8 7 7 7 7 7 7 7 7 8 7 7 5 3 2 2 2
20 21 20 19 18 20 21 20 19 19 19 20 21 22 22 23 21 20 18 19 18 16 15 14 13 12 10 9 9 9 8 8 8 8 7 8 7 7 6 5 3 3 4
21 23 25 24 23 23 23 23 23 20 20 20 21 23 24 24 23 22 21 21 20 18 18 18 16 15 13 11 11 10 10 9 9 9 9 9 9 8 8 7 5 5 5
24 24 26 29 28 28 27 26 26 25 23 22 23 23 24 26 25 24 25 24 22 22 20 20 18 17 15 14 12 12 11 11 11 10 10 10 10 9 9 8 8 7 7
27 28 28 28 32 31 31 30 30 28 27 25 25 25 25 26 27 27 28 26 25 25 24 22 22 20 17 15 14 14 13 13 12 12 12 12 12 11 11 10 10 8 8
26 28 28 31 31 31 33 34 34 34 34 32 29 29 27 27 28 29 29 29 29 29 28 26 25 23 20 18 17 16 16 15 14 14 14 14 14 13 13 12 11 10 9
26 26 27 29 31 34 35 36 36 36 34 37 36 34 30 29 29 28 28 30 32 34 32 29 28 28 25 22 20 19 18 17 17 17 17 17 17 16 15 14 13 12 12
27 28 28 28 29 30 35 40 41 40 39 35 36 39 36 33 31 32 30 31 33 35 36 34 32 32 29 27 24 19 13 19 21 21 20 20 20 19 19 17 16 15 15
12 18 24 29 30 31 32 32 40 42 41 39 39 38 38 39 38 35 33 32 33 37 38 36 35 35 33 31 29 21 9 12 13 21 24 24 23 22 21 20 18 18 18
7 6 11 16 25 34 32 32 33 39 43 45 45 41 39 39 41 41 36 35 35 35 39 38 38 37 36 36 33 29 28 23 13 10 19 24 26 26 23 23 21 21 21
12 9 7 9 13 17 31 35 34 35 33 33 36 39 39 41 41 42 40 38 36 36 38 38 40 41 40 41 39 34 35 32 29 27 22 21 25 27 26 24 23 23 22
10 9 8 7 8 10 15 24 30 34 34 36 34 31 33 38 39 40 41 43 40 37 38 39 41 43 42 42 41 39 36 34 33 33 27 23 21 23 26 25 25 24 24
Wind_Direction
173 171 161 174 169 166 163 166 179 173 178 179 198 205 212 230 254 266 267 243 236 208 155 142 121 111 120 142 163 162 179 186 218 293 296 296 314 322 340 33 61 78 106
173 168 170 172 162 155 156 162 172 179 195 200 209 214 218 228 239 265 253 136 126 129 144 146 131 112 75 134 164 178 196 207 222 276 306 342 8 51 76 71 74 82 101
174 173 168 170 162 161 159 171 179 185 195 209 209 195 204 213 226 139 123 122 121 122 136 142 130 89 63 81 118 150 164 164 149 132 88 84 83 80 79 75 78 79 86
179 177 168 168 163 167 164 179 186 190 187 185 174 158 163 164 144 135 132 132 142 134 138 147 114 75 17 73 117 117 118 117 114 112 99 88 85 74 73 78 77 78 78
173 179 174 171 178 184 164 178 179 189 189 187 192 175 122 129 137 140 152 147 150 147 150 154 152 31 76 107 113 112 106 108 101 93 96 96 91 75 64 60 64 65 56
172 176 179 176 175 169 172 178 184 190 194 184 184 146 130 131 137 152 170 170 159 157 163 169 172 134 121 115 112 105 100 106 104 87 89 90 88 90 84 84 86 90 68
178 179 183 181 177 174 179 178 191 192 194 199 168 150 146 135 135 143 144 151 161 165 167 171 153 133 126 122 119 116 110 103 99 90 94 93 83 90 96 114 114 125 128
187 186 191 183 183 184 191 199 193 198 205 191 181 167 155 146 139 139 144 157 166 170 167 153 146 137 126 118 116 116 116 106 105 103 95 87 93 72 147 209 242 208 272
196 195 195 195 186 193 196 201 198 194 189 188 191 171 161 153 149 145 144 149 155 156 155 151 150 146 133 124 116 113 123 119 116 109 95 99 180 341 356 290 277 279 285
199 202 203 199 198 197 201 208 205 194 197 202 196 178 168 163 160 158 156 156 157 159 158 160 164 161 151 144 135 133 127 131 151 212 192 229 275 327 264 259 298 309 311
198 200 205 208 204 204 209 213 212 201 203 205 202 191 182 178 175 172 170 171 168 168 169 171 179 177 161 150 142 137 143 196 238 256 259 259 287 251 247 267 284 299 306
204 202 205 209 207 208 212 217 215 229 210 210 208 203 199 194 193 190 188 186 185 182 178 196 200 194 187 180 182 215 253 258 258 263 262 269 281 258 278 292 277 283 313
211 212 214 214 213 214 217 222 224 229 231 222 218 216 214 211 206 205 204 201 201 198 192 204 209 214 220 229 246 262 261 263 269 268 267 267 263 254 286 288 281 298 304
228 228 225 224 224 225 224 230 235 235 235 231 230 225 226 224 221 217 218 215 214 214 210 213 216 225 236 251 264 275 276 275 273 266 254 260 263 268 292 285 277 290 300
233 240 242 237 232 236 236 235 237 239 239 240 238 234 232 231 230 228 226 225 224 221 219 221 222 227 238 254 263 273 270 272 268 256 249 255 258 262 267 262 255 268 287
254 247 250 247 244 243 245 248 247 247 243 242 244 242 240 238 236 233 231 229 230 226 227 229 231 228 236 248 257 268 273 274 265 256 249 248 252 250 247 242 241 250 277
267 265 257 256 256 251 248 250 250 247 246 245 245 245 245 244 241 240 233 231 232 231 230 230 233 230 235 245 253 263 268 268 260 253 247 241 240 239 241 238 228 240 254
255 259 261 258 256 255 254 254 253 251 247 246 246 244 247 246 242 241 238 234 232 233 233 234 234 233 237 242 252 258 262 261 256 250 247 241 235 231 235 234 236 239 256
259 253 251 254 253 251 250 252 252 252 253 254 254 248 246 247 245 242 241 238 232 233 235 236 234 233 238 244 252 256 257 254 251 248 245 241 235 233 230 235 242 257 261
266 260 254 248 245 247 247 249 252 252 250 248 248 250 251 251 247 243 242 239 235 235 234 234 235 234 237 240 245 254 255 252 249 246 244 239 236 234 232 235 245 257 261
265 260 257 257 251 242 241 242 244 245 247 245 246 247 248 251 253 250 244 241 237 237 237 235 235 233 235 238 240 245 251 250 249 247 244 237 235 235 236 242 248 256 264
264 256 254 253 251 248 248 247 248 248 248 249 247 246 246 248 250 250 249 242 238 237 235 233 234 233 233 235 234 238 249 251 248 245 242 237 234 236 238 243 250 255 263
265 251 247 245 245 248 251 251 247 249 250 250 248 247 244 241 244 246 248 248 242 235 237 236 235 233 234 233 234 227 215 231 239 241 239 237 236 238 241 244 250 255 262
10 293 266 256 249 241 241 248 247 248 247 247 248 249 250 245 242 245 245 246 247 242 237 237 237 236 235 234 233 232 240 244 240 244 241 240 239 241 243 244 248 252 259
16 3 330 292 276 263 244 239 246 249 254 257 256 255 252 251 247 245 243 246 247 246 246 244 238 236 237 237 235 235 232 235 241 244 245 242 241 240 243 245 249 254 261
350 339 333 330 326 299 268 245 244 249 254 257 254 253 254 253 251 250 245 242 244 246 247 248 247 240 239 240 240 240 242 246 243 239 240 240 242 241 240 242 246 252 260